Pottstown, PA

5:06 AM EDT on June 28, 2017 (GMT -0400)
Pottstown Limerick

Weather History for KPTW - November, 2012

Change the Weather History Date:

Wednesday, November 7, 2012

  Actual Average (KRDG) Record (KRDG)
Temperature  
Mean Temperature 38 °F -  
Max Temperature 42 °F 53 °F 75 °F (1975)
Min Temperature 35 °F 35 °F 25 °F (1982)
Degree Days  
Heating Degree Days 26    
Moisture  
Dew Point 28 °F    
Average Humidity 70    
Maximum Humidity 100    
Minimum Humidity 52    
Precipitation  
Precipitation 0.01 in - - ()
Sea Level Pressure  
Sea Level Pressure 29.93 in    
Wind  
Wind Speed 9 mph (North)    
Max Wind Speed 18 mph    
Max Gust Speed 26 mph    
Visibility 10 miles    
Events Rain , Snow    
Averages and records for this station are not official NWS values.
T = Trace of Precipitation, MM = Missing Value Source: NWS Daily Summary

Daily Weather History Graph

Daily Weather History Graph

Search for Another Location

Airport or City:

Trip Planner

Search our weather history database for the weather conditions in past years. The results will help you decide how hot, cold, wet, or windy it might be!

Date:

Astronomy

Nov. 07, 2012 Rise Set
Actual Time 6:39 AM EST 4:52 PM EST
Civil Twilight 6:10 AM EST 5:20 PM EST
Nautical Twilight 5:38 AM EST 5:53 PM EST
Astronomical Twilight 5:06 AM EST 6:25 PM EST
Moon No Moon Rise 1:00 PM EST (11/7)
Length of Visible Light 11h 10m
Length of Day
10h 13m
Last Quarter, 43% of the Moon is Illuminated
Nov 7
Last Quarter
Nov 13
New
Nov 20
First Quarter
Nov 28
Full
Dec 6
Last Quarter

Hourly Weather History & Observations

Time (EST) Temp. Windchill Dew Point Humidity Pressure Visibility Wind Dir Wind Speed Gust Speed Precip Events Conditions
12:54 AM 35.1 °F 29.3 °F 21.9 °F 59% 30.04 in 10.0 mi NNE 6.9 mph - N/A   Scattered Clouds
1:54 AM 35.1 °F 27.9 °F 21.9 °F 59% 30.02 in 10.0 mi NNE 9.2 mph - N/A   Partly Cloudy
2:54 AM 35.1 °F 31.0 °F 21.9 °F 59% 29.99 in 10.0 mi NNE 4.6 mph - N/A   Partly Cloudy
3:54 AM 35.1 °F 31.0 °F 21.9 °F 59% 29.96 in 10.0 mi North 4.6 mph - N/A   Clear
4:54 AM 35.1 °F 28.6 °F 21.9 °F 59% 29.96 in 10.0 mi NNE 8.1 mph - N/A   Clear
5:54 AM 35.1 °F 30.1 °F 19.0 °F 52% 29.97 in 10.0 mi Variable 5.8 mph - N/A   Clear
6:54 AM 35.1 °F 30.1 °F 21.0 °F 57% 29.98 in 10.0 mi NNE 5.8 mph - N/A   Scattered Clouds
7:54 AM 36.0 °F 31.1 °F 23.0 °F 59% 29.98 in 10.0 mi NNE 5.8 mph - N/A   Scattered Clouds
8:54 AM 37.0 °F 31.6 °F 24.1 °F 59% 29.96 in 10.0 mi NNE 6.9 mph - N/A   Mostly Cloudy
9:54 AM 37.9 °F 30.0 °F 25.0 °F 60% 29.93 in 10.0 mi NNE 12.7 mph - N/A   Mostly Cloudy
10:54 AM 39.0 °F 31.8 °F 26.1 °F 60% 29.93 in 10.0 mi NNE 11.5 mph 20.7 mph N/A   Mostly Cloudy
11:54 AM 39.9 °F 33.4 °F 27.0 °F 60% 29.91 in 10.0 mi NNE 10.4 mph 21.9 mph N/A   Overcast
12:54 PM 41.0 °F 35.8 °F 27.0 °F 57% 29.90 in 10.0 mi North 8.1 mph - N/A   Overcast
1:54 PM 42.1 °F 35.7 °F 27.0 °F 55% 29.90 in 10.0 mi North 11.5 mph - N/A   Overcast
2:54 PM 42.1 °F 36.6 °F 28.0 °F 58% 29.91 in 10.0 mi North 9.2 mph - 0.00 in   Overcast
3:24 PM 39.2 °F 30.8 °F 30.2 °F 70% 29.91 in 10.0 mi NNE 15.0 mph 19.6 mph 0.00 in Rain Light Rain
3:54 PM 39.9 °F 32.1 °F 28.9 °F 65% 29.91 in 10.0 mi North 13.8 mph 20.7 mph 0.00 in Rain Light Rain
4:28 PM 37.4 °F 29.3 °F 30.2 °F 75% 29.90 in 10.0 mi NNW 12.7 mph - 0.00 in Rain Light Rain
4:44 PM 37.4 °F 29.8 °F 32.0 °F 81% 29.91 in 10.0 mi North 11.5 mph 23.0 mph 0.00 in Rain Light Rain
4:54 PM 37.0 °F 29.3 °F 32.0 °F 82% 29.90 in 10.0 mi NNW 11.5 mph 24.2 mph 0.00 in Rain Light Rain
5:12 PM 35.6 °F 25.9 °F 32.0 °F 87% 29.90 in 10.0 mi NNW 16.1 mph 21.9 mph 0.00 in Rain Light Rain
5:54 PM 36.0 °F 28.0 °F 33.1 °F 89% 29.90 in 10.0 mi NNW 11.5 mph - 0.01 in Rain Light Rain
6:54 PM 37.0 °F 30.4 °F 30.9 °F 79% 29.90 in 10.0 mi NNW 9.2 mph - 0.00 in   Overcast
7:47 PM 39.2 °F 30.5 °F 28.4 °F 65% 29.91 in 9.0 mi North 16.1 mph 21.9 mph 0.00 in Rain Light Rain
7:54 PM 37.0 °F 27.7 °F 30.0 °F 76% 29.91 in 5.0 mi North 16.1 mph 26.5 mph 0.00 in Snow Light Snow
8:27 PM 37.4 °F 27.8 °F 28.4 °F 70% 29.91 in 10.0 mi North 17.3 mph 26.5 mph 0.00 in   Overcast
8:54 PM 36.0 °F 26.7 °F 34.0 °F 93% 29.91 in 8.0 mi North 15.0 mph 21.9 mph 0.00 in Snow Light Snow
9:54 PM 35.1 °F 24.5 °F 35.1 °F 100% 29.89 in 4.0 mi NNW 18.4 mph 23.0 mph 0.00 in Snow Light Snow
10:54 PM 35.1 °F 27.9 °F 34.0 °F 96% 29.88 in 8.0 mi North 9.2 mph - 0.00 in Snow Light Snow
11:54 PM 37.0 °F 30.4 °F 35.1 °F 93% 29.86 in 10.0 mi NNW 9.2 mph - 0.00 in   Overcast